Regional Weather Roundup
Issued by NWS Goodland, KS

Home | Current Version | Previous Version | Graphics & Text | Print | Product List | Glossary On
Versions: 1 2 3 4 5 6 7 8 9 10 11 12 13 14 15 16 17 18 19 20 21 22 23 24 25 26 27 28 29 30 31 32 33 34 35 36 37 38 39 40 41 42 43 44 45 46 47 48 49 50
000
ASUS43 KGLD 021459
RWRGLD

GOODLAND FORECAST AREA HOURLY WEATHER ROUNDUP
NATIONAL WEATHER SERVICE GOODLAND KS
900 AM MDT THU JUL 02 2015

...OFFICIAL OBSERVATIONS...

CITY           SKY/WX    TMP DP  RH WIND       PRES   REMARKS
GOODLAND KS    MOSUNNY   71  56  58 N10       30.11R
HILL CITY KS   LGT RAIN  73  67  81 NE10      29.99F
IMPERIAL NEB   CLOUDY    69  60  73 SW7       30.05F
MCCOOK NEB     CLOUDY    70  61  73 SW7       30.00F
AKRON CO       CLOUDY    64  58  80 S10       30.18S
BURLINGTON CO  SUNNY     71  53  52 NE14      30.16R
LIMON CO       MOSUNNY   64  54  69 NE14      30.25F
$$

...UNOFFICIAL OBSERVATIONS...

CITY           SKY/WX    TMP DP  RH WIND       PRES   REMARKS
COLBY KS       SUNNY     73  61  64 NE8       30.07F
GOVE KS          N/A     74  32  21 MISG        N/A
NORTON KS      SUNNY     72  57  60 NE7       29.98S
SHARON SPRINGS   N/A     69  61  77 NE12G20     N/A
KIT CARSON CO    N/A     67  57  71 MISG        N/A
$$


USA.gov is the U.S. government's official web portal to all federal, state and local government web resources and services.